iso_date,epoch_date,Year,Hour,Min,DOY,POS_DOY,Lat,Lon,BP,Ts,Ta,has_bp,has_ts,has_ta,BuoyID,Buoy_Type,Buoy_Owner,Logistics,Hemisphere
2020-09-24T09:00:00Z,1600938000,2020,9,0,268.375,268.375,82.402,1.1448,-999.00,-5.3,-999.0,no,yes,no,300234066898220,unknown,unknown,unknown,North
2020-09-24T10:00:02Z,1600941603,2020,10,0,268.4167,268.4167,82.3872,1.162,-999.00,-5.3,-999.0,no,yes,no,300234066898220,unknown,unknown,unknown,North
2020-09-24T10:59:57Z,1600945197,2020,11,0,268.4583,268.4583,82.371,1.1786,-999.00,-5.3,-999.0,no,yes,no,300234066898220,unknown,unknown,unknown,North
2020-09-24T12:00:00Z,1600948800,2020,12,0,268.5,268.5,82.3548,1.1908,-999.00,-5.3,-999.0,no,yes,no,300234066898220,unknown,unknown,unknown,North
2020-09-24T13:00:02Z,1600952403,2020,13,0,268.5417,268.5417,82.3382,1.1936,-999.00,-5.2,-999.0,no,yes,no,300234066898220,unknown,unknown,unknown,North
2020-09-24T13:59:57Z,1600955997,2020,14,0,268.5833,268.5833,82.3216,1.1886,-999.00,-5.2,-999.0,no,yes,no,300234066898220,unknown,unknown,unknown,North
2020-09-24T15:00:00Z,1600959600,2020,15,0,268.625,268.625,82.3062,1.1824,-999.00,-5.2,-999.0,no,yes,no,300234066898220,unknown,unknown,unknown,North
2020-09-24T16:00:02Z,1600963203,2020,16,0,268.6667,268.6667,82.292,1.1796,-999.00,-5.3,-999.0,no,yes,no,300234066898220,unknown,unknown,unknown,North
2020-09-24T16:59:57Z,1600966797,2020,17,0,268.7083,268.7083,82.2786,1.1806,-999.00,-5.3,-999.0,no,yes,no,300234066898220,unknown,unknown,unknown,North
2020-09-24T18:00:00Z,1600970400,2020,18,0,268.75,268.75,82.2662,1.189,-999.00,-5.3,-999.0,no,yes,no,300234066898220,unknown,unknown,unknown,North
2020-09-24T19:00:02Z,1600974003,2020,19,0,268.7917,268.7917,82.2542,1.2078,-999.00,-5.4,-999.0,no,yes,no,300234066898220,unknown,unknown,unknown,North
2020-09-24T19:59:57Z,1600977597,2020,20,0,268.8333,268.8333,82.2422,1.2384,-999.00,-5.5,-999.0,no,yes,no,300234066898220,unknown,unknown,unknown,North
2020-09-24T21:00:00Z,1600981200,2020,21,0,268.875,268.875,82.2294,1.276,-999.00,-5.6,-999.0,no,yes,no,300234066898220,unknown,unknown,unknown,North
2020-09-24T22:00:02Z,1600984803,2020,22,0,268.9167,268.9167,82.2156,1.3178,-999.00,-5.5,-999.0,no,yes,no,300234066898220,unknown,unknown,unknown,North
2020-09-24T22:59:57Z,1600988397,2020,23,0,268.9583,268.9583,82.2008,1.3614,-999.00,-5.5,-999.0,no,yes,no,300234066898220,unknown,unknown,unknown,North
2020-09-25T00:00:00Z,1600992000,2020,0,0,269.0,269.0,82.1856,1.4056,-999.00,-5.5,-999.0,no,yes,no,300234066898220,unknown,unknown,unknown,North
2020-09-25T01:00:02Z,1600995603,2020,1,0,269.0417,269.0417,82.1696,1.4498,-999.00,-5.4,-999.0,no,yes,no,300234066898220,unknown,unknown,unknown,North
2020-09-25T01:59:57Z,1600999197,2020,2,0,269.0833,269.0833,82.1536,1.4858,-999.00,-5.1,-999.0,no,yes,no,300234066898220,unknown,unknown,unknown,North
2020-09-25T03:00:00Z,1601002800,2020,3,0,269.125,269.125,82.142,1.518,-999.00,-5.1,-999.0,no,yes,no,300234066898220,unknown,unknown,unknown,North
2020-09-25T04:00:02Z,1601006403,2020,4,0,269.1667,269.1667,82.1342,1.5516,-999.00,-5.4,-999.0,no,yes,no,300234066898220,unknown,unknown,unknown,North
2020-09-25T04:59:57Z,1601009997,2020,5,0,269.2083,269.2083,82.1274,1.5968,-999.00,-5.5,-999.0,no,yes,no,300234066898220,unknown,unknown,unknown,North
2020-09-25T06:00:00Z,1601013600,2020,6,0,269.25,269.25,82.12,1.6534,-999.00,-5.4,-999.0,no,yes,no,300234066898220,unknown,unknown,unknown,North
2020-09-25T07:00:02Z,1601017203,2020,7,0,269.2917,269.2917,82.1118,1.7092,-999.00,-5.3,-999.0,no,yes,no,300234066898220,unknown,unknown,unknown,North
2020-09-25T07:59:57Z,1601020797,2020,8,0,269.3333,269.3333,82.1014,1.7634,-999.00,-5.3,-999.0,no,yes,no,300234066898220,unknown,unknown,unknown,North
2020-09-25T09:00:00Z,1601024400,2020,9,0,269.375,269.375,82.0904,1.8112,-999.00,-5.2,-999.0,no,yes,no,300234066898220,unknown,unknown,unknown,North
2020-09-25T10:00:02Z,1601028003,2020,10,0,269.4167,269.4167,82.0804,1.8466,-999.00,-5.5,-999.0,no,yes,no,300234066898220,unknown,unknown,unknown,North
2020-09-25T10:59:57Z,1601031597,2020,11,0,269.4583,269.4583,82.0712,1.8716,-999.00,-5.7,-999.0,no,yes,no,300234066898220,unknown,unknown,unknown,North
2020-09-25T12:00:00Z,1601035200,2020,12,0,269.5,269.5,82.063,1.88,-999.00,-5.7,-999.0,no,yes,no,300234066898220,unknown,unknown,unknown,North
2020-09-25T13:00:02Z,1601038803,2020,13,0,269.5417,269.5417,82.057,1.8832,-999.00,-5.9,-999.0,no,yes,no,300234066898220,unknown,unknown,unknown,North
2020-09-25T13:59:57Z,1601042397,2020,14,0,269.5833,269.5833,82.0534,1.882,-999.00,-6.0,-999.0,no,yes,no,300234066898220,unknown,unknown,unknown,North
2020-09-25T15:00:00Z,1601046000,2020,15,0,269.625,269.625,82.0518,1.8902,-999.00,-6.3,-999.0,no,yes,no,300234066898220,unknown,unknown,unknown,North
2020-09-25T16:00:02Z,1601049603,2020,16,0,269.6667,269.6667,82.051,1.9124,-999.00,-6.7,-999.0,no,yes,no,300234066898220,unknown,unknown,unknown,North
2020-09-25T16:59:57Z,1601053197,2020,17,0,269.7083,269.7083,82.0502,1.9472,-999.00,-7.4,-999.0,no,yes,no,300234066898220,unknown,unknown,unknown,North
2020-09-25T18:00:00Z,1601056800,2020,18,0,269.75,269.75,82.0488,1.9866,-999.00,-7.8,-999.0,no,yes,no,300234066898220,unknown,unknown,unknown,North
2020-09-25T19:00:02Z,1601060403,2020,19,0,269.7917,269.7917,82.0466,2.0224,-999.00,-8.3,-999.0,no,yes,no,300234066898220,unknown,unknown,unknown,North
2020-09-25T19:59:57Z,1601063997,2020,20,0,269.8333,269.8333,82.0438,2.0562,-999.00,-8.7,-999.0,no,yes,no,300234066898220,unknown,unknown,unknown,North
2020-09-25T21:00:00Z,1601067600,2020,21,0,269.875,269.875,82.04,2.0836,-999.00,-9.0,-999.0,no,yes,no,300234066898220,unknown,unknown,unknown,North
2020-09-25T22:00:02Z,1601071203,2020,22,0,269.9167,269.9167,82.0362,2.1042,-999.00,-9.1,-999.0,no,yes,no,300234066898220,unknown,unknown,unknown,North
2020-09-25T22:59:57Z,1601074797,2020,23,0,269.9583,269.9583,82.0326,2.1144,-999.00,-9.5,-999.0,no,yes,no,300234066898220,unknown,unknown,unknown,North
2020-09-26T00:00:00Z,1601078400,2020,0,0,270.0,270.0,82.0294,2.1176,-999.00,-9.8,-999.0,no,yes,no,300234066898220,unknown,unknown,unknown,North
2020-09-26T01:00:02Z,1601082003,2020,1,0,270.0417,270.0417,82.0266,2.1188,-999.00,-10.1,-999.0,no,yes,no,300234066898220,unknown,unknown,unknown,North
2020-09-26T01:59:57Z,1601085597,2020,2,0,270.0833,270.0833,82.0242,2.1236,-999.00,-10.4,-999.0,no,yes,no,300234066898220,unknown,unknown,unknown,North
2020-09-26T03:00:00Z,1601089200,2020,3,0,270.125,270.125,82.0222,2.1346,-999.00,-10.6,-999.0,no,yes,no,300234066898220,unknown,unknown,unknown,North
2020-09-26T04:00:02Z,1601092803,2020,4,0,270.1667,270.1667,82.0208,2.1516,-999.00,-10.9,-999.0,no,yes,no,300234066898220,unknown,unknown,unknown,North
2020-09-26T04:59:57Z,1601096397,2020,5,0,270.2083,270.2083,82.0196,2.1724,-999.00,-10.6,-999.0,no,yes,no,300234066898220,unknown,unknown,unknown,North
2020-09-26T06:00:00Z,1601100000,2020,6,0,270.25,270.25,82.0188,2.1946,-999.00,-10.3,-999.0,no,yes,no,300234066898220,unknown,unknown,unknown,North
2020-09-26T07:00:02Z,1601103603,2020,7,0,270.2917,270.2917,82.0184,2.2196,-999.00,-10.1,-999.0,no,yes,no,300234066898220,unknown,unknown,unknown,North
2020-09-26T07:59:57Z,1601107197,2020,8,0,270.3333,270.3333,82.0176,2.2472,-999.00,-9.8,-999.0,no,yes,no,300234066898220,unknown,unknown,unknown,North
2020-09-26T09:00:00Z,1601110800,2020,9,0,270.375,270.375,82.0158,2.2732,-999.00,-9.3,-999.0,no,yes,no,300234066898220,unknown,unknown,unknown,North
2020-09-26T10:00:02Z,1601114403,2020,10,0,270.4167,270.4167,82.0134,2.2916,-999.00,-9.0,-999.0,no,yes,no,300234066898220,unknown,unknown,unknown,North
2020-09-26T10:59:57Z,1601117997,2020,11,0,270.4583,270.4583,82.0106,2.3016,-999.00,-8.6,-999.0,no,yes,no,300234066898220,unknown,unknown,unknown,North
2020-09-26T12:00:00Z,1601121600,2020,12,0,270.5,270.5,82.0084,2.3068,-999.00,-8.2,-999.0,no,yes,no,300234066898220,unknown,unknown,unknown,North
2020-09-26T13:00:02Z,1601125203,2020,13,0,270.5417,270.5417,82.0066,2.3144,-999.00,-7.9,-999.0,no,yes,no,300234066898220,unknown,unknown,unknown,North
2020-09-26T13:59:57Z,1601128797,2020,14,0,270.5833,270.5833,82.005,2.3242,-999.00,-7.7,-999.0,no,yes,no,300234066898220,unknown,unknown,unknown,North
2020-09-26T15:00:00Z,1601132400,2020,15,0,270.625,270.625,82.0032,2.3364,-999.00,-7.6,-999.0,no,yes,no,300234066898220,unknown,unknown,unknown,North
2020-09-26T16:00:02Z,1601136003,2020,16,0,270.6667,270.6667,82.0014,2.35,-999.00,-7.4,-999.0,no,yes,no,300234066898220,unknown,unknown,unknown,North
2020-09-26T16:59:57Z,1601139597,2020,17,0,270.7083,270.7083,82.0,2.3656,-999.00,-7.3,-999.0,no,yes,no,300234066898220,unknown,unknown,unknown,North
2020-09-26T18:00:00Z,1601143200,2020,18,0,270.75,270.75,81.9988,2.386,-999.00,-7.2,-999.0,no,yes,no,300234066898220,unknown,unknown,unknown,North
2020-09-26T19:00:02Z,1601146803,2020,19,0,270.7917,270.7917,81.9978,2.4124,-999.00,-7.1,-999.0,no,yes,no,300234066898220,unknown,unknown,unknown,North
2020-09-26T19:59:57Z,1601150397,2020,20,0,270.8333,270.8333,81.9964,2.4416,-999.00,-7.1,-999.0,no,yes,no,300234066898220,unknown,unknown,unknown,North
2020-09-26T21:00:00Z,1601154000,2020,21,0,270.875,270.875,81.9946,2.4706,-999.00,-7.3,-999.0,no,yes,no,300234066898220,unknown,unknown,unknown,North
2020-09-26T22:00:02Z,1601157603,2020,22,0,270.9167,270.9167,81.9924,2.4984,-999.00,-7.2,-999.0,no,yes,no,300234066898220,unknown,unknown,unknown,North
2020-09-26T22:59:57Z,1601161197,2020,23,0,270.9583,270.9583,81.9902,2.524,-999.00,-7.1,-999.0,no,yes,no,300234066898220,unknown,unknown,unknown,North
2020-09-27T00:00:00Z,1601164800,2020,0,0,271.0,271.0,81.9878,2.5466,-999.00,-6.9,-999.0,no,yes,no,300234066898220,unknown,unknown,unknown,North
2020-09-27T01:00:02Z,1601168403,2020,1,0,271.0417,271.0417,81.9856,2.566,-999.00,-6.7,-999.0,no,yes,no,300234066898220,unknown,unknown,unknown,North
2020-09-27T01:59:57Z,1601171997,2020,2,0,271.0833,271.0833,81.9834,2.583,-999.00,-6.6,-999.0,no,yes,no,300234066898220,unknown,unknown,unknown,North
2020-09-27T03:00:00Z,1601175600,2020,3,0,271.125,271.125,81.9816,2.5998,-999.00,-6.3,-999.0,no,yes,no,300234066898220,unknown,unknown,unknown,North
2020-09-27T04:00:02Z,1601179203,2020,4,0,271.1667,271.1667,81.98,2.6178,-999.00,-6.1,-999.0,no,yes,no,300234066898220,unknown,unknown,unknown,North
2020-09-27T04:59:57Z,1601182797,2020,5,0,271.2083,271.2083,81.979,2.6382,-999.00,-6.0,-999.0,no,yes,no,300234066898220,unknown,unknown,unknown,North
2020-09-27T06:00:00Z,1601186400,2020,6,0,271.25,271.25,81.9782,2.6606,-999.00,-6.0,-999.0,no,yes,no,300234066898220,unknown,unknown,unknown,North
2020-09-27T07:00:02Z,1601190003,2020,7,0,271.2917,271.2917,81.9772,2.6838,-999.00,-6.2,-999.0,no,yes,no,300234066898220,unknown,unknown,unknown,North
2020-09-27T07:59:57Z,1601193597,2020,8,0,271.3333,271.3333,81.976,2.7082,-999.00,-6.2,-999.0,no,yes,no,300234066898220,unknown,unknown,unknown,North
2020-09-27T09:00:00Z,1601197200,2020,9,0,271.375,271.375,81.9742,2.7302,-999.00,-6.0,-999.0,no,yes,no,300234066898220,unknown,unknown,unknown,North
2020-09-27T10:00:02Z,1601200803,2020,10,0,271.4167,271.4167,81.9722,2.7458,-999.00,-5.7,-999.0,no,yes,no,300234066898220,unknown,unknown,unknown,North
2020-09-27T10:59:57Z,1601204397,2020,11,0,271.4583,271.4583,81.97,2.7544,-999.00,-5.4,-999.0,no,yes,no,300234066898220,unknown,unknown,unknown,North
2020-09-27T12:00:00Z,1601208000,2020,12,0,271.5,271.5,81.968,2.7574,-999.00,-5.3,-999.0,no,yes,no,300234066898220,unknown,unknown,unknown,North
2020-09-27T13:00:02Z,1601211603,2020,13,0,271.5417,271.5417,81.9664,2.7536,-999.00,-5.3,-999.0,no,yes,no,300234066898220,unknown,unknown,unknown,North
2020-09-27T13:59:57Z,1601215197,2020,14,0,271.5833,271.5833,81.965,2.744,-999.00,-5.3,-999.0,no,yes,no,300234066898220,unknown,unknown,unknown,North
2020-09-27T15:00:00Z,1601218800,2020,15,0,271.625,271.625,81.9636,2.7304,-999.00,-5.4,-999.0,no,yes,no,300234066898220,unknown,unknown,unknown,North
2020-09-27T16:00:02Z,1601222403,2020,16,0,271.6667,271.6667,81.9622,2.716,-999.00,-5.5,-999.0,no,yes,no,300234066898220,unknown,unknown,unknown,North
2020-09-27T16:59:57Z,1601225997,2020,17,0,271.7083,271.7083,81.961,2.7036,-999.00,-5.8,-999.0,no,yes,no,300234066898220,unknown,unknown,unknown,North
2020-09-27T18:00:00Z,1601229600,2020,18,0,271.75,271.75,81.96,2.6948,-999.00,-6.5,-999.0,no,yes,no,300234066898220,unknown,unknown,unknown,North
2020-09-27T19:00:02Z,1601233203,2020,19,0,271.7917,271.7917,81.9586,2.691,-999.00,-6.4,-999.0,no,yes,no,300234066898220,unknown,unknown,unknown,North
2020-09-27T19:59:57Z,1601236797,2020,20,0,271.8333,271.8333,81.9568,2.691,-999.00,-7.0,-999.0,no,yes,no,300234066898220,unknown,unknown,unknown,North
2020-09-27T21:00:00Z,1601240400,2020,21,0,271.875,271.875,81.9544,2.694,-999.00,-7.4,-999.0,no,yes,no,300234066898220,unknown,unknown,unknown,North
2020-09-27T22:00:02Z,1601244003,2020,22,0,271.9167,271.9167,81.9518,2.6984,-999.00,-7.9,-999.0,no,yes,no,300234066898220,unknown,unknown,unknown,North
2020-09-27T22:59:57Z,1601247597,2020,23,0,271.9583,271.9583,81.949,2.7014,-999.00,-8.4,-999.0,no,yes,no,300234066898220,unknown,unknown,unknown,North
2020-09-28T00:00:00Z,1601251200,2020,0,0,272.0,272.0,81.9464,2.703,-999.00,-9.0,-999.0,no,yes,no,300234066898220,unknown,unknown,unknown,North
2020-09-28T01:00:02Z,1601254803,2020,1,0,272.0417,272.0417,81.9438,2.7044,-999.00,-9.5,-999.0,no,yes,no,300234066898220,unknown,unknown,unknown,North
2020-09-28T01:59:57Z,1601258397,2020,2,0,272.0833,272.0833,81.941,2.7062,-999.00,-9.8,-999.0,no,yes,no,300234066898220,unknown,unknown,unknown,North
2020-09-28T03:00:00Z,1601262000,2020,3,0,272.125,272.125,81.9382,2.7096,-999.00,-10.0,-999.0,no,yes,no,300234066898220,unknown,unknown,unknown,North
2020-09-28T04:00:02Z,1601265603,2020,4,0,272.1667,272.1667,81.9352,2.7134,-999.00,-9.9,-999.0,no,yes,no,300234066898220,unknown,unknown,unknown,North
2020-09-28T04:59:57Z,1601269197,2020,5,0,272.2083,272.2083,81.932,2.717,-999.00,-9.9,-999.0,no,yes,no,300234066898220,unknown,unknown,unknown,North
2020-09-28T06:00:00Z,1601272800,2020,6,0,272.25,272.25,81.9288,2.7214,-999.00,-9.8,-999.0,no,yes,no,300234066898220,unknown,unknown,unknown,North
2020-09-28T07:00:02Z,1601276403,2020,7,0,272.2917,272.2917,81.9258,2.7266,-999.00,-9.8,-999.0,no,yes,no,300234066898220,unknown,unknown,unknown,North
2020-09-28T07:59:57Z,1601279997,2020,8,0,272.3333,272.3333,81.9226,2.7322,-999.00,-9.4,-999.0,no,yes,no,300234066898220,unknown,unknown,unknown,North
2020-09-28T09:00:00Z,1601283600,2020,9,0,272.375,272.375,81.9192,2.7358,-999.00,-8.3,-999.0,no,yes,no,300234066898220,unknown,unknown,unknown,North
2020-09-28T10:00:02Z,1601287203,2020,10,0,272.4167,272.4167,81.916,2.736,-999.00,-7.1,-999.0,no,yes,no,300234066898220,unknown,unknown,unknown,North
2020-09-28T10:59:57Z,1601290797,2020,11,0,272.4583,272.4583,81.9128,2.733,-999.00,-6.0,-999.0,no,yes,no,300234066898220,unknown,unknown,unknown,North
2020-09-28T12:00:00Z,1601294400,2020,12,0,272.5,272.5,81.9096,2.7262,-999.00,-5.2,-999.0,no,yes,no,300234066898220,unknown,unknown,unknown,North
2020-09-28T13:00:02Z,1601298003,2020,13,0,272.5417,272.5417,81.9064,2.7148,-999.00,-4.7,-999.0,no,yes,no,300234066898220,unknown,unknown,unknown,North
2020-09-28T13:59:57Z,1601301597,2020,14,0,272.5833,272.5833,81.9038,2.699,-999.00,-4.3,-999.0,no,yes,no,300234066898220,unknown,unknown,unknown,North
2020-09-28T15:00:00Z,1601305200,2020,15,0,272.625,272.625,81.9012,2.6808,-999.00,-4.0,-999.0,no,yes,no,300234066898220,unknown,unknown,unknown,North
2020-09-28T16:00:02Z,1601308803,2020,16,0,272.6667,272.6667,81.899,2.6616,-999.00,-3.9,-999.0,no,yes,no,300234066898220,unknown,unknown,unknown,North
2020-09-28T16:59:57Z,1601312397,2020,17,0,272.7083,272.7083,81.897,2.6436,-999.00,-3.8,-999.0,no,yes,no,300234066898220,unknown,unknown,unknown,North
2020-09-28T18:00:00Z,1601316000,2020,18,0,272.75,272.75,81.8952,2.6306,-999.00,-3.7,-999.0,no,yes,no,300234066898220,unknown,unknown,unknown,North
2020-09-28T19:00:02Z,1601319603,2020,19,0,272.7917,272.7917,81.8934,2.6246,-999.00,-3.7,-999.0,no,yes,no,300234066898220,unknown,unknown,unknown,North
2020-09-28T19:59:57Z,1601323197,2020,20,0,272.8333,272.8333,81.892,2.6252,-999.00,-3.6,-999.0,no,yes,no,300234066898220,unknown,unknown,unknown,North
2020-09-28T21:00:00Z,1601326800,2020,21,0,272.875,272.875,81.8904,2.63,-999.00,-3.6,-999.0,no,yes,no,300234066898220,unknown,unknown,unknown,North
2020-09-28T22:00:02Z,1601330403,2020,22,0,272.9167,272.9167,81.8884,2.6374,-999.00,-3.7,-999.0,no,yes,no,300234066898220,unknown,unknown,unknown,North
2020-09-28T22:59:57Z,1601333997,2020,23,0,272.9583,272.9583,81.8864,2.6432,-999.00,-3.7,-999.0,no,yes,no,300234066898220,unknown,unknown,unknown,North
2020-09-29T00:00:00Z,1601337600,2020,0,0,273.0,273.0,81.884,2.6452,-999.00,-3.6,-999.0,no,yes,no,300234066898220,unknown,unknown,unknown,North
2020-09-29T01:00:02Z,1601341203,2020,1,0,273.0417,273.0417,81.8818,2.6434,-999.00,-3.7,-999.0,no,yes,no,300234066898220,unknown,unknown,unknown,North
2020-09-29T01:59:57Z,1601344797,2020,2,0,273.0833,273.0833,81.88,2.6398,-999.00,-3.7,-999.0,no,yes,no,300234066898220,unknown,unknown,unknown,North
2020-09-29T03:00:00Z,1601348400,2020,3,0,273.125,273.125,81.878,2.637,-999.00,-3.8,-999.0,no,yes,no,300234066898220,unknown,unknown,unknown,North
2020-09-29T04:00:02Z,1601352003,2020,4,0,273.1667,273.1667,81.876,2.635,-999.00,-3.8,-999.0,no,yes,no,300234066898220,unknown,unknown,unknown,North
2020-09-29T04:59:57Z,1601355597,2020,5,0,273.2083,273.2083,81.8738,2.6322,-999.00,-3.8,-999.0,no,yes,no,300234066898220,unknown,unknown,unknown,North
2020-09-29T06:00:00Z,1601359200,2020,6,0,273.25,273.25,81.871,2.6284,-999.00,-3.9,-999.0,no,yes,no,300234066898220,unknown,unknown,unknown,North
2020-09-29T07:00:02Z,1601362803,2020,7,0,273.2917,273.2917,81.868,2.6234,-999.00,-4.1,-999.0,no,yes,no,300234066898220,unknown,unknown,unknown,North
2020-09-29T07:59:57Z,1601366397,2020,8,0,273.3333,273.3333,81.8642,2.6162,-999.00,-4.4,-999.0,no,yes,no,300234066898220,unknown,unknown,unknown,North
2020-09-29T09:00:00Z,1601370000,2020,9,0,273.375,273.375,81.8598,2.605,-999.00,-4.6,-999.0,no,yes,no,300234066898220,unknown,unknown,unknown,North
2020-09-29T10:00:02Z,1601373603,2020,10,0,273.4167,273.4167,81.8548,2.5876,-999.00,-4.7,-999.0,no,yes,no,300234066898220,unknown,unknown,unknown,North
2020-09-29T10:59:57Z,1601377197,2020,11,0,273.4583,273.4583,81.85,2.5634,-999.00,-4.7,-999.0,no,yes,no,300234066898220,unknown,unknown,unknown,North
2020-09-29T12:00:00Z,1601380800,2020,12,0,273.5,273.5,81.8456,2.5344,-999.00,-4.6,-999.0,no,yes,no,300234066898220,unknown,unknown,unknown,North
2020-09-29T13:00:02Z,1601384403,2020,13,0,273.5417,273.5417,81.8412,2.5,-999.00,-4.7,-999.0,no,yes,no,300234066898220,unknown,unknown,unknown,North
2020-09-29T13:59:57Z,1601387997,2020,14,0,273.5833,273.5833,81.8366,2.4572,-999.00,-4.6,-999.0,no,yes,no,300234066898220,unknown,unknown,unknown,North
2020-09-29T15:00:00Z,1601391600,2020,15,0,273.625,273.625,81.8318,2.4048,-999.00,-4.3,-999.0,no,yes,no,300234066898220,unknown,unknown,unknown,North
2020-09-29T16:00:02Z,1601395203,2020,16,0,273.6667,273.6667,81.827,2.3442,-999.00,-4.1,-999.0,no,yes,no,300234066898220,unknown,unknown,unknown,North
2020-09-29T16:59:57Z,1601398797,2020,17,0,273.7083,273.7083,81.8224,2.2762,-999.00,-3.8,-999.0,no,yes,no,300234066898220,unknown,unknown,unknown,North
2020-09-29T18:00:00Z,1601402400,2020,18,0,273.75,273.75,81.8178,2.2066,-999.00,-3.7,-999.0,no,yes,no,300234066898220,unknown,unknown,unknown,North
2020-09-29T19:00:02Z,1601406003,2020,19,0,273.7917,273.7917,81.8132,2.1394,-999.00,-3.7,-999.0,no,yes,no,300234066898220,unknown,unknown,unknown,North
2020-09-29T19:59:57Z,1601409597,2020,20,0,273.8333,273.8333,81.8084,2.0778,-999.00,-3.9,-999.0,no,yes,no,300234066898220,unknown,unknown,unknown,North
2020-09-29T21:00:00Z,1601413200,2020,21,0,273.875,273.875,81.8034,2.0232,-999.00,-4.0,-999.0,no,yes,no,300234066898220,unknown,unknown,unknown,North
2020-09-29T22:00:02Z,1601416803,2020,22,0,273.9167,273.9167,81.7978,1.975,-999.00,-4.2,-999.0,no,yes,no,300234066898220,unknown,unknown,unknown,North
2020-09-29T22:59:57Z,1601420397,2020,23,0,273.9583,273.9583,81.7912,1.9302,-999.00,-4.3,-999.0,no,yes,no,300234066898220,unknown,unknown,unknown,North
2020-09-30T00:00:00Z,1601424000,2020,0,0,274.0,274.0,81.7844,1.8892,-999.00,-4.5,-999.0,no,yes,no,300234066898220,unknown,unknown,unknown,North
2020-09-30T01:00:02Z,1601427603,2020,1,0,274.0417,274.0417,81.7774,1.8512,-999.00,-4.6,-999.0,no,yes,no,300234066898220,unknown,unknown,unknown,North
2020-09-30T01:59:57Z,1601431197,2020,2,0,274.0833,274.0833,81.7704,1.814,-999.00,-4.7,-999.0,no,yes,no,300234066898220,unknown,unknown,unknown,North
2020-09-30T03:00:00Z,1601434800,2020,3,0,274.125,274.125,81.7632,1.7746,-999.00,-4.7,-999.0,no,yes,no,300234066898220,unknown,unknown,unknown,North
2020-09-30T04:00:02Z,1601438403,2020,4,0,274.1667,274.1667,81.7562,1.7316,-999.00,-4.6,-999.0,no,yes,no,300234066898220,unknown,unknown,unknown,North
2020-09-30T04:59:57Z,1601441997,2020,5,0,274.2083,274.2083,81.749,1.6852,-999.00,-4.5,-999.0,no,yes,no,300234066898220,unknown,unknown,unknown,North
2020-09-30T06:00:00Z,1601445600,2020,6,0,274.25,274.25,81.7412,1.6352,-999.00,-4.3,-999.0,no,yes,no,300234066898220,unknown,unknown,unknown,North
2020-09-30T07:00:02Z,1601449203,2020,7,0,274.2917,274.2917,81.7334,1.5822,-999.00,-3.8,-999.0,no,yes,no,300234066898220,unknown,unknown,unknown,North
2020-09-30T07:59:57Z,1601452797,2020,8,0,274.3333,274.3333,81.7254,1.5282,-999.00,-3.9,-999.0,no,yes,no,300234066898220,unknown,unknown,unknown,North
2020-09-30T09:00:00Z,1601456400,2020,9,0,274.375,274.375,81.7172,1.4766,-999.00,-3.7,-999.0,no,yes,no,300234066898220,unknown,unknown,unknown,North
2020-09-30T10:00:02Z,1601460003,2020,10,0,274.4167,274.4167,81.7092,1.4252,-999.00,-3.6,-999.0,no,yes,no,300234066898220,unknown,unknown,unknown,North
2020-09-30T10:59:57Z,1601463597,2020,11,0,274.4583,274.4583,81.7016,1.3744,-999.00,-3.3,-999.0,no,yes,no,300234066898220,unknown,unknown,unknown,North
2020-09-30T12:00:00Z,1601467200,2020,12,0,274.5,274.5,81.6944,1.3258,-999.00,-3.1,-999.0,no,yes,no,300234066898220,unknown,unknown,unknown,North
2020-09-30T13:00:02Z,1601470803,2020,13,0,274.5417,274.5417,81.6878,1.2784,-999.00,-2.9,-999.0,no,yes,no,300234066898220,unknown,unknown,unknown,North
2020-09-30T13:59:57Z,1601474397,2020,14,0,274.5833,274.5833,81.681,1.2356,-999.00,-2.8,-999.0,no,yes,no,300234066898220,unknown,unknown,unknown,North
2020-09-30T15:00:00Z,1601478000,2020,15,0,274.625,274.625,81.6742,1.199,-999.00,-2.7,-999.0,no,yes,no,300234066898220,unknown,unknown,unknown,North
2020-09-30T16:00:02Z,1601481603,2020,16,0,274.6667,274.6667,81.667,1.1694,-999.00,-2.7,-999.0,no,yes,no,300234066898220,unknown,unknown,unknown,North
2020-09-30T16:59:57Z,1601485197,2020,17,0,274.7083,274.7083,81.6594,1.1414,-999.00,-2.8,-999.0,no,yes,no,300234066898220,unknown,unknown,unknown,North
2020-09-30T18:00:00Z,1601488800,2020,18,0,274.75,274.75,81.6516,1.1166,-999.00,-2.8,-999.0,no,yes,no,300234066898220,unknown,unknown,unknown,North
2020-09-30T19:00:02Z,1601492403,2020,19,0,274.7917,274.7917,81.6434,1.0956,-999.00,-2.8,-999.0,no,yes,no,300234066898220,unknown,unknown,unknown,North
2020-09-30T19:59:57Z,1601495997,2020,20,0,274.8333,274.8333,81.6352,1.0766,-999.00,-2.9,-999.0,no,yes,no,300234066898220,unknown,unknown,unknown,North
2020-09-30T21:00:00Z,1601499600,2020,21,0,274.875,274.875,81.627,1.0624,-999.00,-3.0,-999.0,no,yes,no,300234066898220,unknown,unknown,unknown,North
2020-09-30T22:00:02Z,1601503203,2020,22,0,274.9167,274.9167,81.6192,1.0526,-999.00,-3.1,-999.0,no,yes,no,300234066898220,unknown,unknown,unknown,North
2020-09-30T22:59:57Z,1601506797,2020,23,0,274.9583,274.9583,81.6122,1.0514,-999.00,-3.2,-999.0,no,yes,no,300234066898220,unknown,unknown,unknown,North
2020-10-01T00:00:00Z,1601510400,2020,0,0,275.0,275.0,81.6058,1.0566,-999.00,-3.3,-999.0,no,yes,no,300234066898220,unknown,unknown,unknown,North